Total_Precipitation_Accumulation
0.30 0.22 0.26 0.25 0.22 0.25 0.28 0.35 0.36 0.32 0.30 0.27 0.26 0.28 0.30 0.32 0.32 0.29 0.30 0.38 0.44 0.50 0.52 0.62 0.69 0.76 0.82 0.91 0.94 0.89 0.90 0.96 1.17 1.25 1.41 1.53 1.64 1.51 1.45 1.59 1.67 1.47 1.44
0.26 0.22 0.20 0.19 0.19 0.22 0.30 0.37 0.35 0.32 0.30 0.31 0.30 0.32 0.34 0.32 0.28 0.26 0.30 0.39 0.52 0.57 0.54 0.56 0.60 0.63 0.72 0.78 0.85 0.93 0.94 1.03 1.18 1.38 1.59 1.72 1.88 1.78 1.66 1.63 1.74 1.82 1.55
0.29 0.31 0.18 0.19 0.19 0.22 0.32 0.36 0.34 0.32 0.31 0.31 0.32 0.33 0.32 0.29 0.30 0.31 0.33 0.39 0.51 0.57 0.56 0.50 0.50 0.56 0.63 0.69 0.83 0.96 1.03 1.15 1.43 1.67 2.01 1.90 1.81 1.81 1.73 1.69 1.57 1.46 1.27
0.28 0.28 0.20 0.22 0.25 0.27 0.32 0.35 0.41 0.38 0.37 0.35 0.34 0.32 0.32 0.32 0.35 0.38 0.39 0.42 0.50 0.58 0.63 0.61 0.58 0.57 0.60 0.65 0.76 0.92 1.14 1.30 1.66 2.03 2.38 2.14 1.89 2.17 2.11 1.85 1.56 1.40 1.23
0.26 0.25 0.28 0.31 0.31 0.34 0.35 0.35 0.40 0.41 0.41 0.44 0.44 0.38 0.38 0.39 0.39 0.40 0.44 0.47 0.51 0.57 0.65 0.70 0.69 0.62 0.63 0.68 0.75 0.88 1.11 1.32 1.74 2.28 2.64 2.44 2.38 2.61 2.26 1.85 1.63 1.51 1.37
0.31 0.25 0.30 0.38 0.36 0.37 0.39 0.39 0.38 0.40 0.43 0.47 0.51 0.49 0.47 0.47 0.45 0.45 0.50 0.53 0.58 0.61 0.67 0.73 0.76 0.71 0.70 0.72 0.81 0.94 1.16 1.41 1.65 2.12 2.70 2.54 2.43 2.56 2.28 2.00 1.78 1.62 1.50
0.50 0.43 0.36 0.38 0.37 0.39 0.42 0.46 0.48 0.46 0.47 0.51 0.54 0.54 0.55 0.54 0.50 0.52 0.56 0.56 0.63 0.66 0.66 0.63 0.64 0.62 0.68 0.75 0.79 0.89 1.20 1.63 1.67 2.28 2.72 2.58 2.63 2.46 2.32 2.22 2.02 1.76 1.53
0.65 0.59 0.54 0.47 0.39 0.44 0.52 0.53 0.58 0.62 0.60 0.59 0.60 0.60 0.62 0.58 0.56 0.58 0.61 0.64 0.72 0.81 0.80 0.70 0.65 0.64 0.65 0.68 0.72 0.84 1.05 1.28 1.41 2.02 2.48 2.41 2.30 2.18 2.29 2.37 2.08 1.78 1.59
0.85 0.83 0.80 0.61 0.55 0.58 0.67 0.67 0.70 0.72 0.70 0.68 0.70 0.74 0.74 0.72 0.70 0.68 0.69 0.73 0.79 0.84 0.85 0.81 0.80 0.77 0.77 0.75 0.76 0.87 1.03 1.29 1.51 1.82 1.97 2.34 2.21 2.33 2.32 2.23 2.04 1.73 1.57
1.18 1.16 1.08 1.03 0.96 0.86 0.89 0.95 0.91 0.90 0.84 0.77 0.74 0.81 0.81 0.75 0.72 0.79 0.77 0.82 0.87 0.88 0.88 0.94 1.04 1.03 0.98 0.88 0.85 0.92 1.10 1.22 1.13 1.54 2.17 2.23 2.17 2.42 2.49 2.22 2.07 1.87 1.66
1.53 1.48 1.29 1.32 1.29 1.16 1.15 1.09 1.14 1.11 1.04 0.96 0.90 0.90 0.86 0.91 1.00 1.01 0.97 1.10 1.14 1.20 1.27 1.29 1.29 1.26 1.26 1.13 1.08 1.12 1.17 1.06 1.25 1.78 2.22 2.09 2.23 2.51 2.62 2.43 2.16 2.05 1.85
1.70 1.60 1.53 1.43 1.35 1.31 1.24 1.31 1.38 1.31 1.29 1.14 1.23 1.21 1.22 1.53 1.69 1.46 1.58 1.63 1.60 1.62 1.61 1.57 1.52 1.51 1.41 1.14 1.20 1.30 1.05 1.09 1.56 1.99 1.98 2.02 2.28 2.63 2.88 2.68 2.34 2.18 2.09
2.01 1.81 1.85 1.72 1.62 1.77 1.84 1.74 1.71 1.73 1.77 1.59 1.70 1.76 1.83 2.00 2.01 1.97 2.07 1.94 1.90 1.85 1.83 1.94 1.72 1.44 1.37 1.31 1.26 1.26 1.15 1.17 1.39 1.63 1.82 2.05 2.32 2.76 3.05 2.88 2.60 2.46 2.41
2.64 2.42 2.30 2.25 2.16 2.29 2.54 2.35 2.05 1.91 1.96 1.96 2.10 2.04 2.32 2.42 2.40 2.35 2.42 2.33 2.29 2.25 2.32 2.22 2.08 1.84 1.72 1.58 1.44 1.44 1.44 1.40 1.47 1.68 1.88 2.02 2.18 2.67 3.09 3.08 2.91 2.70 2.65
2.81 2.87 2.67 2.61 2.56 2.77 2.97 2.84 2.58 2.49 2.28 2.21 2.43 2.42 2.56 2.63 2.65 2.73 2.63 2.60 2.42 2.38 2.39 2.30 2.20 2.20 2.11 1.91 1.66 1.64 1.72 1.68 1.74 1.92 1.93 2.07 2.15 2.48 2.99 3.26 3.24 3.09 3.06
2.66 2.85 3.06 3.05 2.97 2.83 2.94 2.96 2.75 2.50 2.59 2.49 2.48 2.54 2.55 2.68 2.90 2.97 2.91 2.83 2.74 2.67 2.75 2.58 2.41 2.60 2.45 2.31 2.08 2.02 1.96 2.03 2.02 2.08 2.24 2.31 2.20 2.23 2.63 3.08 3.33 3.44 3.47
2.57 2.66 2.87 3.04 3.18 3.04 3.01 3.04 2.88 2.67 2.65 2.74 2.83 2.95 2.81 2.75 3.01 3.09 3.22 3.12 3.05 3.01 3.05 3.00 2.93 3.00 2.72 2.55 2.37 2.27 2.25 2.34 2.33 2.23 2.37 2.52 2.36 2.40 2.47 2.64 2.87 3.12 3.37
2.22 2.46 2.70 2.92 3.11 3.33 3.38 3.45 3.23 3.26 3.26 3.18 3.04 3.01 2.89 2.92 3.14 3.44 3.51 3.44 3.45 3.36 3.46 3.55 3.49 3.30 3.11 2.92 2.73 2.41 2.30 2.46 2.51 2.50 2.52 2.58 2.73 2.60 2.55 2.46 2.55 2.69 2.98
1.94 2.39 2.74 3.06 3.43 3.66 3.81 3.98 3.89 3.98 3.83 3.67 3.57 3.43 3.47 3.58 3.62 3.81 3.91 3.91 3.91 3.94 3.92 3.74 3.90 3.70 3.60 3.40 2.98 2.69 2.40 2.33 2.40 2.36 2.49 2.47 2.59 2.63 2.68 2.57 2.53 2.57 2.77
2.09 2.45 2.82 3.13 3.66 4.16 4.21 4.32 4.33 4.52 4.48 4.40 4.45 4.28 4.09 4.16 4.25 4.41 4.32 4.34 4.38 4.44 4.28 4.25 4.29 4.07 3.82 3.75 3.29 2.99 2.72 2.44 2.41 2.42 2.45 2.58 2.51 2.32 2.45 2.56 2.70 2.53 2.70
2.70 2.85 3.07 3.32 3.66 3.92 4.27 4.54 4.73 4.89 5.04 5.06 5.07 5.07 5.07 5.06 5.16 5.20 4.98 4.95 4.86 4.74 4.53 4.47 4.34 4.12 3.87 3.88 3.74 3.26 2.66 2.29 2.22 2.12 2.18 2.42 2.46 2.34 2.38 2.46 2.51 2.45 2.33
3.10 3.15 3.36 3.69 4.01 4.18 4.55 5.04 5.47 5.64 5.68 5.66 5.65 5.80 5.86 5.86 5.98 5.98 5.94 5.73 5.57 5.31 4.84 4.48 4.34 4.12 3.75 3.88 3.90 3.80 3.09 2.59 2.11 1.72 1.82 1.91 2.01 2.22 2.19 2.15 2.27 2.39 2.28
3.10 3.21 3.37 3.83 4.27 4.72 5.19 5.75 6.18 6.39 6.39 6.23 5.93 6.03 6.16 6.04 6.10 6.22 6.17 5.96 5.66 5.15 4.61 4.44 4.39 4.23 3.98 3.91 3.82 3.98 3.43 2.88 2.43 1.93 1.69 1.59 1.72 1.84 1.85 1.88 1.93 2.05 2.06
2.98 3.21 3.40 3.80 4.45 4.94 5.30 5.94 6.54 6.78 6.97 7.04 6.80 6.49 6.27 6.02 5.87 5.80 5.62 5.20 4.83 4.49 4.21 4.08 4.13 4.01 3.99 3.82 3.72 3.44 3.21 2.93 2.65 2.23 1.79 1.57 1.61 1.65 1.67 1.65 1.68 1.88 1.98
2.85 2.96 3.20 3.75 4.35 5.01 5.62 6.14 6.68 7.11 7.34 7.31 6.87 6.40 5.88 5.50 5.06 4.67 4.35 4.13 4.04 3.86 3.65 3.54 3.54 3.46 3.32 3.23 3.21 3.16 3.10 2.85 2.52 2.31 2.00 1.78 1.77 1.61 1.60 1.70 1.76 1.83 1.94
2.51 2.72 3.01 3.46 4.20 4.88 5.46 6.02 6.48 6.85 6.91 6.60 6.07 5.50 5.14 4.78 4.29 3.79 3.52 3.31 3.19 3.03 2.83 2.72 2.71 2.73 2.82 2.89 2.95 2.93 2.86 2.80 2.62 2.55 2.35 2.08 1.97 1.87 1.79 1.76 1.81 1.90 2.06